Preview of NWS' New Version of Forecast
This preview is not operational and should not be used for support decisions.
Latest weather observations around

Missoula, Missoula International Airport (KMSO)

Using International System of Units (Switch to English Units)
Date/ Time (MST) Wind (kph) Vis. (km) Weather Sky Cond. Temp (°C) Rel. Humidity Wind Chill (°C) Heat Index (°C) Pressure Precip. (cm)
Air Dwpt 6 hour Altimeter (hPa) Sea level (hPa) 1 hr 3 hr 6 hr
Max Min
Feb 19 08:10 SE 9 2.41 Light Snow FEW009 BKN040 OVC048 -13 -16     79% -19       0    
Feb 19 08:01 SE 9 4.02 Light Snow SCT009 BKN042 OVC050 -13 -16     79% -19       0    
Feb 19 07:53 ESE 8 6.44 Haze BKN009 BKN039 OVC050 -13 -16     79% -18     1024.3   0  
Feb 19 07:46 ESE 11 6.44 Haze BKN009 BKN033 OVC048 -13 -16     79% -20            
Feb 19 07:37 ESE 8 8.05 Haze SCT009 SCT033 OVC048 -13 -16     79% -18   1018.3        
Feb 19 07:30 ESE 8 11.27 Cloudy FEW033 OVC046 -13 -16     79% -18   1018.3        
Feb 19 06:53 SE 11 12.87 Cloudy OVC046 -13 -16     79% -20   1018.6 1024.5 0    
Feb 19 05:53 SE 8 8.05 Light Snow OVC043 -13 -16     80% -18   1019.3 1025.2 0    
Feb 19 05:19 SE 5 11.27 Cloudy SCT009 OVC044 -13 -16     80% -16   1019.7        
Feb 19 04:53 S 5 11.27 Clear   -13 -15     84% -16     1025.4      
Feb 19 03:53 SE 8 11.27 Cloudy FEW009 OVC047 -12 -14     84% -17     1025.4      
Feb 19 03:24 ESE 9 11.27 Cloudy FEW009 OVC050 -12 -14     84% -18   1020        
Feb 19 02:53 SE 11 9.66 Fog/Mist OVC050 -12 -14     84% -18     1025.8 0    
Feb 19 01:53 Calm 4.83 Light Snow and Fog/Mist FEW043 OVC055 -12 -13     88%       1026.2 0 0  
Feb 19 00:53 SE 8 4.83 Light Snow OVC042 -11 -13     81% -15     1026.6 0    
Feb 19 00:09 ESE 8 4.83 Light Snow SCT030 OVC042 -11 -13     81% -15   1020.7   0    
Feb 18 23:53 ESE 8 4.02 Light Snow SCT030 OVC042 -10 -13     80% -14   1021 1026.6 0    
Feb 18 23:43 ESE 5 4.02 Light Snow SCT030 OVC043 -10 -13     80% -13       0    
Feb 18 23:21 ESE 8 4.83 Light Snow and Fog/Mist SCT034 OVC045 -11 -13     84% -15       0    
Feb 18 22:53 SE 8 9.66 Fog/Mist OVC055 -11 -13     84% -15     1026.8 0   0
Feb 18 21:53 SE 8 12.87 Cloudy BKN033 OVC060 -11 -13     84% -15     1027.2      
Feb 18 21:39 SE 5 12.87 Cloudy FEW034 OVC060 -11 -13     84% -14            
Feb 18 20:53 SSE 5 11.27 Cloudy OVC065 -11 -12     88% -14   1021.3 1027.4      
Feb 18 19:53 Calm 11.27 Cloudy SCT060 OVC070 -10 -13     77%     1021.7 1027.9 0 0  
Feb 18 19:14 N 5 4.83 Light Snow OVC034 -10 -14     73% -13   1022   0    
Feb 18 19:00 SE 5 3.22 Light Snow and Fog/Mist OVC032 -10 -12     84% -13   1022   0    
Feb 18 18:53 SE 8 1.61 Light Snow and Fog/Mist FEW010 OVC030 -10 -12     84% -14   1022 1027.9 0    
Feb 18 18:28 SSE 5 1.61 Light Snow and Fog/Mist OVC033 -10 -12     84% -13   1021.7   0    
Feb 18 17:53 Calm 1.61 Light Snow OVC039 -10 -13     77%     1021.3 1027.5 0    
Feb 18 17:41 Calm 1.61 Light Snow OVC037 -10 -13     77%         0    
Feb 18 17:34 Calm 3.22 Light Snow BKN037 OVC048 -10 -13     77%         0    
Feb 18 16:53 SSW 5 8.05 Haze BKN040 OVC050 -9 -16     61% -12   1021.7 1027.4      
Feb 18 15:53 Calm 16.09 Cloudy OVC050 -9 -17     53%     1021.7 1027.5      
Feb 18 14:53 Calm 16.09 Cloudy BKN075 OVC100 -9 -17     53%       1027.9      
Feb 18 13:53 Calm 16.09 Cloudy BKN085 OVC100 -11 -17     58%       1028.7      
Feb 18 12:53 Calm 16.09 Cloudy OVC039 -11 -18     55%       1029.3      
Feb 18 11:53 E 11 16.09 Cloudy OVC039 -11 -18     55% -17   1024.1 1030.1      
Feb 18 10:53 E 11 16.09 Cloudy OVC043 -12 -18     60% -18   1024.4 1030.4 0   0
Feb 18 09:53 ESE 17 4.83 Light Snow SCT032 OVC050 -13 -17     72% -21   1024.4 1030.5 0    
Feb 18 09:38 ESE 17 4.83 Light Snow BKN032 BKN050 OVC055 -13 -18     69% -21   1024.4   0    
Feb 18 08:53 ESE 11 4.83 Light Snow OVC048 -13 -18     66% -20   1024.1 1030.3 0    
Feb 18 07:53 Calm 11.27 Cloudy OVC050 -13 -17     76%     1023.7 1029.8 0 0  
Feb 18 07:15 Calm 11.27 Cloudy FEW034 OVC050 -13 -17     76%     1023.4   0    
Feb 18 06:53 ENE 11 4.83 Light Snow OVC050 -13 -18     69% -20     1029.4 0    
Feb 18 06:50 E 13 4.83 Light Snow FEW035 OVC050 -13 -18     66% -20       0    
Feb 18 06:36 E 11 3.22 Light Snow SCT029 OVC050 -13 -17     72% -20       0    
Feb 18 06:27 E 13 2.82 Light Snow BKN028 OVC050 -13 -17     72% -20       0    
Feb 18 06:16 E 13 3.22 Light Snow OVC024 -13 -17     72% -20       0    
Feb 18 05:53 E 9 2.41 Light Snow OVC023 -13 -18     69% -19   1023.4 1029.3 0    
Feb 18 05:36 Calm 2.82 Light Snow OVC027 -13 -17     76%     1023.4   0    
Feb 18 05:28 Calm 2.41 Light Snow OVC031 -13 -17     76%     1023.4   0    
Feb 18 05:20 Calm 3.22 Light Snow OVC035 -13 -17     76%     1023.4   0    
Feb 18 04:53 E 15 14.48 Cloudy OVC060 -13 -18     69% -21   1023.4 1029.1      
Feb 18 03:53 E 17 12.87 Cloudy OVC048 -13 -19     60% -21   1023.4 1028.9      
Feb 18 02:53   16.09 Cloudy BKN050 BKN075 OVC095 -13 -19     60%     1023.7 1029.1      
Feb 18 01:53 ESE 17 16.09 Cloudy SCT070 OVC095 -13 -19     60% -21   1023.4 1029.1      
Feb 18 00:53 ESE 21 14.48 Cloudy SCT050 BKN075 OVC100 -12 -18     60% -21     1028.8      
Feb 17 23:53 ESE 22 16.09 Cloudy OVC040 -12 -18     60% -21   1023.4 1028.7      
Feb 17 22:53 ESE 24 16.09 Cloudy SCT035 OVC046 -12 -17     64% -21   1023 1028.7      
Feb 17 22:35 ESE 24 14.48 Cloudy FEW033 FEW043 OVC050 -11 -17     63% -20   1022.7        
Feb 17 21:53   16.09 Cloudy BKN060 OVC080 -11 -17     61%     1022.4 1027.9      
Feb 17 20:53 ESE 26 16.09 Cloudy OVC050 -11 -16     64% -20     1027.6      
Feb 17 19:53 ESE 28 12.87 Cloudy OVC046 -10 -16     61% -19   1021.7 1027.2      
Feb 17 18:53   16.09 Cloudy BKN050 BKN080 OVC120 -9 -17     51%     1021 1026.2      
Feb 17 17:53 E 21 16.09 Mostly Cloudy SCT038 BKN050 BKN070 -8 -17     47% -15   1020.3 1025.1      
Feb 17 16:53 E 26 16.09 Cloudy SCT038 OVC055 -7 -17     45% -15   1020 1024.5     0
Feb 17 15:53 ESE 26 16.09 Cloudy OVC050 -7 -17     47% -15   1019.3 1024      
Feb 17 15:14 E 22 14.48 Cloudy FEW035 BKN047 OVC060 -7 -16     47% -14   1019.3        
Feb 17 14:53 E 26 16.09 Cloudy BKN039 OVC050 -7 -16     49% -15   1019.3 1023.4 0    
Feb 17 13:53 ESE 26 16.09 Cloudy FEW040 OVC055 -7 -16     49% -15   1019.3 1023.3      
Feb 17 12:53 ESE 26 16.09 Cloudy OVC050 -7 -16     49% -15   1019 1023.2      
Feb 17 11:53 ESE 33 14.48 Cloudy and Windy OVC050 -7 -16     49% -16   1019 1023      
Feb 17 10:53   16.09 Cloudy OVC048 -8 -16     53%     1018 1022.2      
Feb 17 09:53   16.09 Cloudy BKN050 OVC065 -9 -16     58%     1017.3 1021.5      
Feb 17 08:53 E 28 11.27 Cloudy BKN042 BKN050 OVC070 -8 -15     58% -17   1016.6 1020.5      
Feb 17 07:53   14.48 Cloudy OVC050 -9 -14     64%     1015.2 1019.4      
Feb 17 06:53   16.09 Cloudy OVC046 -8 -13     67%     1014.2 1018.1      
Feb 17 05:53 ESE 32 16.09 Cloudy and Windy BKN044 OVC060 -7 -13     62% -15     1016.6      
Feb 17 04:53 ESE 28 14.48 Cloudy OVC038 -6 -12     65% -14   1011.9 1015.2     0
Feb 17 03:53 ESE 33 12.87 Cloudy and Windy SCT030 BKN040 OVC060 -6 -10     71% -14   1010.8 1014 0    
Feb 17 03:21 ESE 30 9.66 Haze SCT024 OVC060 -5 -9     71% -13   1010.2        
Feb 17 02:53 ESE 26 16.09 Cloudy OVC023 -4 -9     68% -11   1009.8 1012.8      
Feb 17 01:53 ESE 30 14.48 Cloudy OVC018 -3 -7     75% -10   1009.2 1012      
Feb 17 00:53 ESE 9 16.09 Cloudy OVC016 -3 -5     85% -6   1008.5 1011.3      
Feb 16 23:53 Calm 14.48 Cloudy BKN017 OVC046 -3 -5     88%     1008.1 1011.4      
Feb 16 23:50 Calm 14.48 Cloudy BKN017 OVC046 -3 -5     86%     1008.1        
Feb 16 23:39 Calm 16.09 Cloudy SCT017 OVC045 -2 -4     85%     1008.1        
Feb 16 22:53 SSE 5 16.09 Clear   -2 -4     88% -4     1010.9 0    
Feb 16 22:29 SSE 8 16.09 Cloudy FEW008 BKN049 OVC060 -2 -3     89% -5       0    
Feb 16 21:53 S 8 16.09 Cloudy BKN039 OVC050 -2 -4     82% -5   1007.5 1010.8      
Feb 16 20:53 ESE 9 16.09 Cloudy OVC050 -1 -4     81% -4     1010      
Feb 16 19:53 ESE 8 16.09 Mostly Cloudy BKN048 -2 -4     85% -5   1007.1 1010.2   0  
Feb 16 18:53 ESE 15 16.09 Cloudy FEW050 SCT060 OVC075 -1 -4     78% -5   1006.8 1009.8 0    
Feb 16 17:53 E 11 6.44 Light Snow SCT028 OVC060 0 -3     78% -4     1008.9 0    
Feb 16 17:51 E 13 6.44 Light Snow SCT028 OVC060 0 -3     80% -4       0    
Feb 16 17:37 SSE 11 6.44 Light Snow FEW016 BKN026 OVC034 0 -3     78% -4   1006.1   0    
Feb 16 17:30 SE 17 4.02 Light Snow BKN029 OVC037 1 -4     72% -4   1006.1   0    
Feb 16 16:53 SSE 11 16.09 Partly Cloudy SCT065 0 -4     72% -4   1005.8 1008.6 0   0
Feb 16 16:04 SSE 5 9.66 Light Snow FEW020 SCT065 OVC080 2 -6     56% 0   1005.4   0    
Feb 16 15:53 SSW 9 16.09 Mostly Cloudy FEW065 BKN080 BKN090 1 -6     61% -2   1005.4 1008.1      
Feb 16 14:53 Calm 16.09 Partly Cloudy SCT070 2 -7     54%     1005.4 1007.7      
Feb 16 13:53 Calm 16.09 Mostly Clear FEW070 1 -6     61%     1005.4 1008      
Feb 16 12:53 Calm 16.09 Partly Cloudy SCT060 1 -5     64%       1008.2      
Feb 16 11:53 Calm 16.09 Mostly Cloudy FEW047 SCT055 BKN100 -1 -4     78%     1006.4 1008.9      
Feb 16 10:53 Calm 16.09 Cloudy BKN055 OVC120 -2 -5     78%     1006.4 1009.1      
Feb 16 09:53 Calm 14.48 Clear   -4 -6     88%     1006.1 1009.2      
Feb 16 08:53 E 8 16.09 Mostly Cloudy BKN060 BKN120 -2 -6     72% -5   1005.8 1008.6      
May 14 10:53 S 5 16.09 Clear CLR 14 6     55%     1020.3 1019.6      
May 14 06:53 SSE 5 16.09 Clear CLR 6 3     82% 5   1020.7 1020.5      
May 12 22:53 Calm 16.09 Clear CLR 11 3     59%     1014.9 1014.9      
May 12 18:53 N 15 16.09 Clear CLR 19 3     34%     1013.6 1013.5      
May 11 17:53   16.09 Mostly Clear FEW060 13 7     66%     1017.6 1017.8     0
Jun 11 20:53   16.09 Clear   18 2     34%     1009.8 1009.3      
Jun 11 14:53 W 8 16.09 Clear CLR 18 -2     25%     1012.2 1012.4      
Jun 10 12:13 8 9.66 Light Rain FEW035 BKN043 OVC055 11 5     66%     1007.5   0    
Jun 10 08:53 S 11 16.09 Clear CLR 11 5     68%     1007.5 1007.1      
Jun 09 13:53 11 16.09 Light Rain FEW026 SCT037 BKN047 14 9     72%     1009.2 1008.7 0    
Jun 08 21:53   16.09 Mostly Clear FEW120 18 11     63%     1007.5 1005.9      
Jun 07 23:53 E 17 16.09 Clear CLR 21 12     57%     1010.5 1008.2      
Jun 07 09:53 Calm 16.09 Clear CLR 19 11     61%     1015.6 1013.8      
Jun 06 01:53 N 8 16.09 Clear CLR 8 5     80% 7   1021.7 1021.1